Showing default

EXPLORER 11, 107

Orbit data source: Space-Track

EXPLORER 11, 107 is a payload satellite owned by GSFC (US) in LEO that was launched on Thu, 27 Apr 1961 UTC via a JUNO II launch vehicle from the Air Force Eastern Test Range (AFETR). Payload-class satellites include a variety of spacecraft equipped with specific instruments for various scientific and technological missions. These include communications satellites like Starlink; space stations such as the ISS; scientific satellites like the Hubble; Earth observation satellites from companies like Planet Labs, Umbra, and HawkEye 360; GPS; miniature CubeSats for education and research; and military/defense satellites.

Not visible in the next 10 days
Identifier
107, 1961-013A
Orbit
LEO
Country
Flag of USUS
Related business
Manufacturer
NASA MSFC
Mission
Civil Astronomy
Bus & Motor
S-15, Unknown motor
Mass
45 kg wet, 40 kg dry
Launch date (UTC)
1961-04-27 (64 years ago)
Launch vehicle
JUNO II
Launch site
Air Force Eastern Test Range (AFETR)
Object type
Payload
Rocket body
Debris
Shape & HBR
Cyl, 0.6 m
Radar Cross Section
0.295 m², Medium (>0.1 m² and < 1m²)

Expand to show TLE details & history
Last TLE update: 1 day ago

TLE from 1 day ago
0 EXPLORER 11
1 00107U 61013A   25258.93635326  .00004883  00000-0  58680-3 0  9991
2 00107  28.7864  95.8069 0502596  89.9472 275.8668 14.20206398237445
Epoch: 2025-09-15T22:28Z
TLE epoch observation values (Epoch: 2025-09-15T22:28:20.921Z)
Latitude
-0.00003°
Longitude
123.58581°
Altitude
804.129 km
Speed
7.463 km/s
True Right ascension
06h 23m 13s
True Declination
0° 00' 00"
Sunlit
Object was in daylight at epoch
Visualization orbit readout
Latitude
Unknown
Longitude
Unknown
Altitude
Unknown
Speed
Unknown
Apparent Right ascension
Unknown
Apparent Declination
Unknown
Sunlit
N/A
Visualization observer readout
Local Sidereal Time
15:19:35
Azimuth
Unknown
Elevation
Unknown
Doppler factor
Unknown
Orbital elements
Apogee altitude
1,190.875 km
Perigee altitude
466.453 km
Semi-major axis
7,206.801 km
Eccentricity
0.05026
Inclination
28.7864°
RAAN
95.8069°
Arg. of periapsis
89.9472°
True anomaly
270.11033°
Mean anomaly
275.8668°
Eccentric anomaly
272.99106°
Mean motion
3.54756 °/min
Orbital period
101.48 mins
BSTAR
0.0005868
Loading maneuver chart data...
Computing Atmospheric mass density...
Loading historical data...
Loading historical data...
Loading historical data...
Loading historical data...
Loading historical data...
Loading historical data...
Loading historical data...
Other satellites on launch #13 in the year 1961 (1961-04-27 UTC)

Documentation

Showing up to 5 results
|